CW4629 Weather Reports


time (UTC)temp
C
wind
direction
speed
KPH
gust
KPH
rain 1hr
cm
rain 24hr
cm
rain mn
cm
humidity
%
barometer
mb
20260902102829 22 67 0.0 0.0 0.00 0.00 0.00 48 1016.0
20260902101913 22 67 0.0 0.0 0.00 0.00 0.00 47 1016.0
20260902100912 22 67 0.0 0.0 0.00 0.00 0.00 44 1015.9
20260902095914 22 67 0.0 1.6 0.00 0.00 0.00 46 1016.0
20260902094011 23 67 0.0 0.0 0.00 0.00 0.00 43 1015.9
20260902093027 22 67 0.0 1.6 0.00 0.00 0.00 46 1015.9
20260902092111 22 67 0.0 0.0 0.00 0.00 0.00 45 1015.9
20260902091113 22 47 3.2 6.4 0.00 0.00 0.00 48 1016.0
20260902085114 23 90 0.0 0.0 0.00 0.00 0.00 45 1015.9
20260902084127 22 90 3.2 4.8 0.00 0.00 0.00 46 1015.7
20260902082227 22 330 0.0 1.6 0.00 0.00 0.00 47 1016.0
20260902081227 23 337 0.0 0.0 0.00 0.00 0.00 46 1015.9
20260902075329 23 326 1.6 3.2 0.00 0.00 0.00 45 1015.6
20260902074410 23 292 3.2 4.8 0.00 0.00 0.00 44 1015.6
20260902074328 23 292 3.2 3.2 0.00 0.00 0.00 43 1015.7
20260902073312 24 67 0.0 0.0 0.00 0.00 0.00 42 1015.4
20260902073227 24 67 0.0 1.6 0.00 0.00 0.00 41 1015.5
20260902072312 24 315 0.0 0.0 0.00 0.00 0.00 40 1015.4
20260902071326 25 202 0.0 1.6 0.00 0.00 0.00 38 1015.4
20260902070411 25 185 4.8 8.0 0.00 0.00 0.00 37 1015.3
20260902065511 25 337 0.0 0.0 0.00 0.00 0.00 37 1015.3
20260902064526 26 337 0.0 1.6 0.00 0.00 0.00 36 1015.3
20260902063611 26 360 0.0 1.6 0.00 0.00 0.00 36 1015.3
20260902061713 27 156 1.6 4.8 0.00 0.00 0.00 33 1015.1
20260902060711 28 82 3.2 6.4 0.00 0.00 0.00 31 1014.9
20260902055724 28 113 4.8 8.0 0.00 0.00 0.00 31 1015.0
20260902053725 27 132 3.2 6.4 0.00 0.00 0.00 31 1014.9
20260902052807 28 136 1.6 4.8 0.00 0.00 0.00 30 1014.9
20260902051809 28 132 1.6 4.8 0.00 0.00 0.00 30 1015.2
20260902045924 28 154 4.8 11.3 0.00 0.00 0.00 28 1015.2
20260902044809 28 146 6.4 11.3 0.00 0.00 0.00 29 1014.9
20260902042925 28 152 3.2 8.0 0.00 0.00 0.00 29 1014.9
20260902041909 29 149 4.8 11.3 0.00 0.00 0.00 29 1014.8
20260902040926 29 162 4.8 11.3 0.00 0.00 0.00 29 1014.6
20260902040008 29 150 4.8 11.3 0.00 0.00 0.00 29 1014.6
20260902034024 29 175 4.8 8.0 0.00 0.00 0.00 28 1014.3
20260902033109 29 136 3.2 4.8 0.00 0.00 0.00 26 1014.3
20260902030110 30 195 8.0 14.5 0.00 0.00 0.00 25 1014.0
20260902030023 30 197 9.7 14.5 0.00 0.00 0.00 24 1014.0
20260902025027 30 202 8.0 11.3 0.00 0.00 0.00 25 1014.0
20260902024123 30 181 4.8 4.8 0.00 0.00 0.00 25 1013.8
20260902023109 30 188 4.8 8.0 0.00 0.00 0.00 24 1013.6
20260902021210 31 205 8.0 17.7 0.00 0.00 0.00 22 1013.7
20260902020308 31 192 8.0 11.3 0.00 0.00 0.00 23 1013.6
20260902013324 32 205 9.7 16.1 0.00 0.00 0.00 20 1013.9
20260902012408 32 207 12.9 20.9 0.00 0.00 0.00 21 1013.8
20260902010409 33 210 12.9 19.3 0.00 0.00 0.00 20 1014.0
20260902005424 33 222 16.1 27.4 0.00 0.00 0.00 20 1014.0
20260902003410 33 221 17.7 25.7 0.00 0.00 0.00 19 1014.1
20260902002507 33 211 14.5 20.9 0.00 0.00 0.00 19 1013.9
20260902002409 33 216 14.5 22.5 0.00 0.00 0.00 20 1013.9
20260902001425 33 209 14.5 22.5 0.00 0.00 0.00 19 1014.0
20260902000509 33 214 17.7 27.4 0.00 0.00 0.00 20 1014.0
20260901235608 33 218 14.5 22.5 0.00 0.00 0.00 18 1014.0
20260901234610 33 228 17.7 25.7 0.00 0.00 0.00 18 1014.2
20260901233623 33 185 14.5 24.1 0.00 0.00 0.00 19 1014.1
20260901232625 33 222 11.3 20.9 0.00 0.00 0.00 18 1014.3
20260901231708 33 200 11.3 20.9 0.00 0.00 0.00 17 1014.3
20260901230710 34 218 16.1 27.4 0.00 0.00 0.00 16 1014.4
20260901224825 33 203 12.9 22.5 0.00 0.00 0.00 21 1014.4
20260901222908 33 249 14.5 24.1 0.00 0.00 0.00 24 1014.5
20260901222008 33 215 12.9 17.7 0.00 0.00 0.00 25 1014.5
20260901221007 32 242 16.1 22.5 0.00 0.00 0.00 27 1014.8
20260901220023 33 253 19.3 25.7 0.00 0.00 0.00 27 1014.4
20260901215921 33 268 17.7 35.4 0.00 0.00 0.00 27 1014.6
20260901214908 32 206 11.3 17.7 0.00 0.00 0.00 26 1014.9
20260901214808 32 206 14.5 20.9 0.00 0.00 0.00 27 1014.9
20260901213808 33 223 6.4 12.9 0.00 0.00 0.00 27 1015.2
20260901210825 32 224 12.9 19.3 0.00 0.00 0.00 27 1015.4
20260901205906 32 216 8.0 17.7 0.00 0.00 0.00 28 1015.5
20260901204909 33 219 14.5 19.3 0.00 0.00 0.00 28 1015.9
20260901203923 33 175 8.0 16.1 0.00 0.00 0.00 29 1016.0
20260901203008 32 155 4.8 8.0 0.00 0.00 0.00 30 1016.4
20260901200107 32 161 1.6 6.4 0.00 0.03 0.00 32 1016.7
20260901194108 32 164 8.0 14.5 0.00 0.05 0.00 31 1016.8
20260901193107 32 171 3.2 8.0 0.00 0.05 0.00 33 1017.0
20260901192110 32 184 1.6 8.0 0.00 0.05 0.00 32 1017.3
20260901192025 32 220 3.2 11.3 0.00 0.05 0.00 32 1017.0
20260901191123 32 360 0.0 3.2 0.00 0.05 0.00 34 1017.3
20260901190110 31 267 0.0 3.2 0.00 0.08 0.00 36 1017.3
20260901185206 32 328 3.2 9.7 0.00 0.10 0.00 34 1017.7
20260901184211 31 150 0.0 3.2 0.00 0.10 0.00 37 1017.8
20260901183227 30 294 3.2 6.4 0.00 0.15 0.00 38 1017.9
20260901182225 31 336 1.6 6.4 0.00 0.53 0.00 38 1018.1
20260901181208 31 67 4.8 8.0 0.00 0.53 0.00 38 1018.1
20260901181125 31 47 1.6 6.4 0.00 0.53 0.00 38 1018.3
20260901180026 30 202 1.6 4.8 0.00 0.53 0.00 39 1018.4
20260901175007 30 114 1.6 4.8 0.00 0.53 0.00 40 1018.5
20260901174008 29 142 4.8 9.7 0.00 0.53 0.00 41 1018.5
20260901173022 30 61 4.8 11.3 0.00 0.53 0.00 42 1018.5
20260901172007 28 177 3.2 4.8 0.00 0.53 0.00 44 1018.6
20260901171007 28 136 1.6 3.2 0.00 0.53 0.00 44 1018.7
20260901170022 28 339 0.0 1.6 0.00 0.53 0.00 45 1018.7
20260901165109 27 157 0.0 4.8 0.00 0.53 0.00 46 1018.8
20260901164107 27 286 4.8 8.0 0.00 0.53 0.00 48 1018.9
20260901163123 26 180 0.0 0.0 0.00 0.53 0.00 50 1018.8
20260901162109 25 202 3.2 4.8 0.00 0.53 0.00 52 1018.9
20260901160123 24 220 4.8 6.4 0.00 0.53 0.00 55 1019.0
20260901155209 23 202 4.8 8.0 0.00 0.53 0.00 56 1018.9
20260901154307 23 157 1.6 1.6 0.00 0.53 0.00 57 1018.9
20260901153406 23 157 3.2 4.8 0.00 0.53 0.00 56 1019.1
20260901152423 24 202 4.8 6.4 0.00 0.53 0.00 54 1019.2
20260901150423 23 180 3.2 4.8 0.00 0.53 0.00 57 1019.2
20260901145408 23 202 0.0 1.6 0.00 0.53 0.00 58 1019.2
20260901144505 23 315 0.0 0.0 0.00 0.53 0.00 59 1019.2
20260901143509 22 315 0.0 0.0 0.00 0.53 0.00 62 1019.2
20260901142523 21 315 0.0 0.0 0.00 0.53 0.00 65 1019.2
20260901141608 21 2 0.0 4.8 0.00 0.53 0.00 63 1019.2
20260901140626 20 360 1.6 1.6 0.00 0.53 0.00 67 1019.3
20260901134708 19 337 0.0 0.0 0.00 0.53 0.00 72 1019.4
20260901133722 18 337 1.6 1.6 0.00 0.53 0.00 74 1019.2
20260901132809 18 337 0.0 1.6 0.00 0.53 0.00 76 1019.1
20260901132707 18 337 0.0 1.6 0.00 0.53 0.00 76 1019.2
20260901131707 18 337 3.2 3.2 0.00 0.53 0.00 74 1019.0
20260901130709 18 295 0.0 3.2 0.00 0.53 0.00 74 1019.0
20260901125723 18 270 0.0 0.0 0.00 0.53 0.00 73 1019.0
20260901124822 18 270 0.0 0.0 0.00 0.53 0.00 73 1018.9
20260901122923 18 315 3.2 4.8 0.00 0.53 0.00 73 1018.9
20260901122022 18 315 0.0 0.0 0.00 0.53 0.00 74 1019.0
20260901121008 18 315 0.0 0.0 0.00 0.53 0.00 73 1019.0
20260901120107 18 315 0.0 0.0 0.00 0.53 0.00 74 1019.0
20260901115107 18 315 0.0 0.0 0.00 0.53 0.00 74 1019.0
20260901114107 18 315 0.0 0.0 0.00 0.53 0.00 72 1019.1
20260901114022 18 315 0.0 0.0 0.00 0.53 0.00 73 1019.0
20260901113006 18 315 0.0 0.0 0.00 0.53 0.00 71 1019.0
20260901112007 18 315 3.2 4.8 0.00 0.53 0.00 71 1019.0
20260901111106 18 337 0.0 1.6 0.00 0.53 0.00 72 1019.1
20260901105208 18 337 1.6 3.2 0.00 0.53 0.00 71 1018.9
20260901104306 18 247 0.0 0.0 0.00 0.53 0.00 70 1018.8